Location: Augirein
(42.9320°N, 0.9181°E)
Time: 12:59:50
(UTC+00:00)

ATLAS 5 CENTAUR R/B - Pass Details

Date: 20 June 2021
Orbit: 510 x 1148 km, 63.4° (Epoch: 28 July)

Event Time Altitude Azimuth Distance (km) Brightness Sun altitude
Exits shadow 02:29:23 21° 255° (WSW) 1,265 2.7 -15.0°
Maximum altitude 02:31:39 40° 314° (NW) 845 2.3 -14.8°
Drops below altitude 10° 02:35:49 10° 24° (NNE) 1,993 5.5 -14.3°
Sets 02:38:24 0° 32° (NNE) 3,003 7.0 -14.1°
